Pagrindinis puslapis
METAR-TAF:

METAR-TAF

Oro uostai :

Santa Ana del Yacuma, Bolivija

platuma: 13-46S, ilguma: 065-26W, Aukštis: 144 m

Dabartinis oras

Ataskaita buvo paskelbta 23 minutes, ne 14:00 UTC
Vėjas 8 kt iš Šiaurės/Šiaurės Vakarų
Temperatūra 32°C
Drėgmė 56%
Slėgis 1011 hPa
Matomumas: 5000 m
dūmai

METAR: SLSA 161400Z 33008KT 5000 FU NSC 32/22 Q1011

Laikas: 10:23 (14:23 UTC)


TAF: trūkstamas

Orai ataskaitas ir orų prognozės (METAR, TAF).

turimą stotys yra geltonos ir raudonos taškus žemėlapyje.

Perkelti pele per norėdami pamatyti stoties vardą.

Tada spustelėkite, norėdami matyti oro stebėjimo ir prognozės.

Norėdami pakeisti žemėlapį: spustelėkite ant žalios mygtukų su juodo kryžiaus žemyn,; žalią mygtuką su brūkšneliu, jei norite nutolinti; arba žalių rodyklių gretimoms žemėlapius.


METAR-TAF: